TimeCST,TemperatureF,Dew PointF,Humidity,Sea Level PressureIn,VisibilityMPH,Wind Direction,Wind SpeedMPH,Gust SpeedMPH,PrecipitationIn,Events,Conditions,WindDirDegrees,DateUTC
12:15 AM,11.8,8.6,87,30.21,7.0,NNW,5.8,-,N/A,,Scattered Clouds,340,2013-01-01 06:15:00
12:35 AM,11.3,7.7,85,30.21,7.0,NNW,5.8,-,N/A,,Mostly Cloudy,340,2013-01-01 06:35:00
12:55 AM,10.4,6.8,85,30.22,10.0,North,6.9,-,N/A,,Overcast,350,2013-01-01 06:55:00
1:15 AM,10.8,6.8,84,30.22,10.0,NNW,8.1,-,N/A,,Overcast,340,2013-01-01 07:15:00
1:35 AM,11.3,7.5,85,30.22,10.0,NNW,4.6,-,N/A,,Scattered Clouds,340,2013-01-01 07:35:00
1:55 AM,11.7,7.3,83,30.22,10.0,North,5.8,-,N/A,,Clear,350,2013-01-01 07:55:00
2:15 AM,12.0,7.7,83,30.22,10.0,North,3.5,-,N/A,,Mostly Cloudy,360,2013-01-01 08:15:00
2:35 AM,11.3,7.3,84,30.23,10.0,North,3.5,-,N/A,,Overcast,360,2013-01-01 08:35:00
2:55 AM,11.8,7.3,82,30.24,10.0,North,6.9,-,N/A,,Overcast,360,2013-01-01 08:55:00
3:15 AM,10.9,7.0,84,30.25,10.0,North,5.8,-,N/A,,Overcast,350,2013-01-01 09:15:00
3:35 AM,13.3,9.5,85,30.25,10.0,North,6.9,-,N/A,,Overcast,350,2013-01-01 09:35:00
3:55 AM,15.8,12.2,86,30.25,10.0,North,5.8,-,N/A,,Overcast,350,2013-01-01 09:55:00
4:15 AM,15.3,11.1,84,30.25,10.0,North,5.8,-,N/A,,Mostly Cloudy,360,2013-01-01 10:15:00
4:35 AM,12.4,7.9,82,30.24,10.0,North,6.9,-,N/A,,Scattered Clouds,360,2013-01-01 10:35:00
4:55 AM,9.3,5.4,84,30.23,10.0,North,9.2,-,N/A,,Clear,360,2013-01-01 10:55:00
5:15 AM,7.5,3.7,85,30.23,7.0,North,6.9,-,N/A,,Clear,10,2013-01-01 11:15:00
5:35 AM,7.7,3.7,84,30.23,7.0,North,8.1,-,N/A,,Clear,10,2013-01-01 11:35:00
5:55 AM,5.9,1.4,82,30.23,7.0,North,8.1,-,N/A,,Clear,350,2013-01-01 11:55:00
6:15 AM,5.5,1.0,82,30.23,5.0,North,5.8,-,N/A,,Clear,360,2013-01-01 12:15:00
6:35 AM,4.3,-0.8,80,30.23,7.0,North,5.8,-,N/A,,Clear,360,2013-01-01 12:35:00
6:55 AM,5.0,0.5,82,30.24,7.0,North,3.5,-,N/A,,Clear,360,2013-01-01 12:55:00
7:15 AM,5.2,0.3,80,30.25,7.0,NNW,4.6,-,N/A,,Clear,340,2013-01-01 13:15:00
7:35 AM,0.5,-4.9,78,30.26,7.0,Calm,Calm,-,N/A,,Clear,0,2013-01-01 13:35:00
7:55 AM,3.4,-2.0,78,30.27,5.0,NW,3.5,-,N/A,,Haze,320,2013-01-01 13:55:00
8:15 AM,3.7,-1.1,80,30.28,5.0,Calm,Calm,-,N/A,,Clear,0,2013-01-01 14:15:00
8:35 AM,4.8,-0.2,80,30.28,5.0,Calm,Calm,-,N/A,,Haze,0,2013-01-01 14:35:00
8:55 AM,5.0,1.4,85,30.29,0.5,Calm,Calm,-,N/A,Fog,Light Freezing Fog,0,2013-01-01 14:55:00
9:15 AM,7.3,3.0,82,30.29,1.0,Calm,Calm,-,N/A,,Mostly Cloudy,0,2013-01-01 15:15:00
9:35 AM,8.8,4.5,83,30.30,1.5,Calm,Calm,-,N/A,,Haze,0,2013-01-01 15:35:00
9:55 AM,10.9,6.8,83,30.30,5.0,Calm,Calm,-,N/A,,Clear,0,2013-01-01 15:55:00
10:15 AM,11.3,7.5,85,30.31,7.0,Calm,Calm,-,N/A,,Clear,0,2013-01-01 16:15:00
10:35 AM,13.1,9.3,85,30.32,10.0,Calm,Calm,-,N/A,,Clear,0,2013-01-01 16:35:00
10:55 AM,13.3,9.5,85,30.32,10.0,WNW,3.5,-,N/A,,Clear,290,2013-01-01 16:55:00
11:15 AM,13.5,9.5,84,30.32,10.0,WSW,3.5,-,N/A,,Clear,240,2013-01-01 17:15:00
11:35 AM,14.4,10.2,84,30.31,10.0,WSW,3.5,-,N/A,,Clear,250,2013-01-01 17:35:00
11:55 AM,15.8,9.5,76,30.30,10.0,West,4.6,-,N/A,,Clear,270,2013-01-01 17:55:00
12:15 PM,16.5,8.2,70,30.29,10.0,WSW,4.6,-,N/A,,Clear,250,2013-01-01 18:15:00
12:35 PM,17.6,8.4,67,30.28,10.0,WSW,4.6,-,N/A,,Clear,240,2013-01-01 18:35:00
12:55 PM,18.1,8.1,65,30.27,10.0,WSW,3.5,-,N/A,,Clear,240,2013-01-01 18:55:00
1:15 PM,19.0,6.3,58,30.26,10.0,SW,5.8,-,N/A,,Clear,230,2013-01-01 19:15:00
1:35 PM,19.4,5.7,55,30.26,10.0,WSW,5.8,-,N/A,,Clear,240,2013-01-01 19:35:00
1:55 PM,19.8,7.9,60,30.25,10.0,SW,5.8,-,N/A,,Clear,230,2013-01-01 19:55:00
2:15 PM,20.3,9.1,62,30.24,10.0,SW,5.8,-,N/A,,Clear,220,2013-01-01 20:15:00
2:35 PM,20.7,9.7,63,30.24,10.0,SW,5.8,-,N/A,,Clear,230,2013-01-01 20:35:00
2:55 PM,20.7,10.2,64,30.24,10.0,SW,6.9,-,N/A,,Clear,230,2013-01-01 20:55:00
3:15 PM,20.7,10.2,64,30.23,10.0,SW,5.8,-,N/A,,Clear,230,2013-01-01 21:15:00
3:35 PM,20.7,10.4,65,30.22,10.0,SW,4.6,-,N/A,,Clear,230,2013-01-01 21:35:00
3:55 PM,21.2,10.4,63,30.22,10.0,SSW,4.6,-,N/A,,Clear,210,2013-01-01 21:55:00
4:15 PM,20.3,10.8,67,30.22,10.0,SSW,5.8,-,N/A,,Clear,210,2013-01-01 22:15:00
4:35 PM,20.1,10.6,67,30.22,10.0,SSW,4.6,-,N/A,,Clear,200,2013-01-01 22:35:00
4:55 PM,18.3,9.5,68,30.22,10.0,SSW,5.8,-,N/A,,Clear,200,2013-01-01 22:55:00
5:15 PM,17.4,9.0,69,30.20,10.0,South,6.9,-,N/A,,Clear,190,2013-01-01 23:15:00
5:35 PM,16.7,8.8,71,30.20,10.0,SSW,5.8,-,N/A,,Clear,200,2013-01-01 23:35:00
5:55 PM,16.3,8.6,72,30.20,10.0,SSW,9.2,-,N/A,,Clear,200,2013-01-01 23:55:00
6:15 PM,15.8,8.6,73,30.20,10.0,SSW,6.9,-,N/A,,Clear,200,2013-01-02 00:15:00
6:35 PM,14.9,7.9,74,30.20,10.0,SSW,5.8,-,N/A,,Clear,200,2013-01-02 00:35:00
6:55 PM,13.1,6.8,76,30.20,10.0,South,4.6,-,N/A,,Clear,190,2013-01-02 00:55:00
7:15 PM,13.3,7.9,79,30.20,10.0,South,5.8,-,N/A,,Clear,190,2013-01-02 01:15:00
7:35 PM,13.1,7.7,79,30.19,10.0,South,5.8,-,N/A,,Clear,180,2013-01-02 01:35:00
7:55 PM,12.9,7.7,80,30.19,10.0,South,4.6,-,N/A,,Clear,190,2013-01-02 01:55:00
8:15 PM,11.8,6.8,80,30.19,10.0,South,5.8,-,N/A,,Clear,190,2013-01-02 02:15:00
8:35 PM,11.1,6.4,81,30.18,10.0,South,3.5,-,N/A,,Clear,190,2013-01-02 02:35:00
8:55 PM,11.8,7.2,81,30.18,10.0,South,5.8,-,N/A,,Clear,190,2013-01-02 02:55:00
9:15 PM,10.9,6.4,82,30.17,10.0,SSW,4.6,-,N/A,,Clear,200,2013-01-02 03:15:00
9:35 PM,10.4,6.4,84,30.17,7.0,South,6.9,-,N/A,,Clear,180,2013-01-02 03:35:00
9:55 PM,11.5,7.5,84,30.16,7.0,SSW,5.8,-,N/A,,Clear,200,2013-01-02 03:55:00
10:15 PM,11.3,7.3,84,30.16,7.0,SSW,8.1,-,N/A,,Clear,200,2013-01-02 04:15:00
10:35 PM,12.0,7.7,83,30.16,7.0,SSW,6.9,-,N/A,,Clear,200,2013-01-02 04:35:00
10:55 PM,12.2,8.1,83,30.16,7.0,SSW,5.8,-,N/A,,Clear,210,2013-01-02 04:55:00
11:15 PM,12.7,8.4,83,30.17,7.0,SW,4.6,-,N/A,,Clear,220,2013-01-02 05:15:00
11:35 PM,12.4,8.4,84,30.16,7.0,South,4.6,-,N/A,,Clear,190,2013-01-02 05:35:00
11:55 PM,13.1,9.3,85,30.16,7.0,South,4.6,-,N/A,,Clear,170,2013-01-02 05:55:00